EW3370 Weather Reports


Display with metric or nautical units.
time (UTC)temp
F
wind
direction
speed
MPH
gust
MPH
rain 1hr
in
rain 24hr
in
rain mn
in
humidity
%
barometer
mb
20260904083527 64 128 0.0 3.0 0.00 0.00 0.00 87 1011.7
20260904083028 64 127 1.0 3.0 0.00 0.00 0.00 86 1011.8
20260904082534 64 192 0.0 0.0 0.00 0.00 0.00 87 1011.8
20260904082040 64 192 0.0 0.0 0.00 0.00 0.00 86 1011.9
20260904081518 64 192 0.0 0.0 0.00 0.00 0.00 86 1011.8
20260904081020 65 192 0.0 0.0 0.00 0.00 0.00 86 1011.9
20260904080523 65 192 0.0 0.0 0.00 0.00 0.00 86 1012.0
20260904080032 65 192 0.0 0.0 0.00 0.00 0.00 86 1011.9
20260904075556 65 192 0.0 0.0 0.00 0.00 0.00 86 1012.0
20260904075020 65 192 0.0 0.0 0.00 0.00 0.00 85 1012.1
20260904074523 66 192 0.0 0.0 0.00 0.00 0.00 86 1012.0
20260904074025 66 192 0.0 0.0 0.00 0.00 0.00 86 1011.9
20260904073533 66 192 0.0 0.0 0.00 0.00 0.00 86 1011.9
20260904073038 66 194 0.0 0.0 0.00 0.00 0.00 86 1012.0
20260904072519 66 194 0.0 0.0 0.00 0.00 0.00 86 1012.0
20260904072022 66 197 0.0 0.0 0.00 0.00 0.00 86 1012.0
20260904071524 66 197 0.0 0.0 0.00 0.00 0.00 86 1012.0
20260904071028 66 197 0.0 0.0 0.00 0.00 0.00 87 1012.0
20260904070534 66 197 0.0 0.0 0.00 0.00 0.00 87 1011.9
20260904070025 66 197 0.0 0.0 0.00 0.00 0.00 87 1011.9
20260904065528 65 197 0.0 0.0 0.00 0.00 0.00 88 1012.0
20260904065031 65 197 0.0 0.0 0.00 0.00 0.00 88 1012.0
20260904064535 65 197 0.0 0.0 0.00 0.00 0.00 88 1012.0
20260904064020 65 197 0.0 0.0 0.00 0.00 0.00 88 1011.9
20260904063520 65 197 0.0 0.0 0.00 0.00 0.00 88 1011.9
20260904063023 65 196 0.0 0.0 0.00 0.00 0.00 88 1011.9
20260904062525 65 196 0.0 0.0 0.00 0.00 0.00 88 1011.8
20260904062029 65 196 0.0 0.0 0.00 0.00 0.00 88 1011.8
20260904061537 65 196 0.0 0.0 0.00 0.00 0.00 88 1011.8
20260904061019 65 196 0.0 0.0 0.00 0.00 0.00 88 1011.7
20260904060529 65 196 0.0 0.0 0.00 0.00 0.00 87 1011.7
20260904060052 65 196 0.0 0.0 0.00 0.00 0.00 87 1011.8
20260904055537 65 196 0.0 0.0 0.00 0.00 0.00 86 1011.7
20260904055020 65 196 0.0 0.0 0.00 0.00 0.00 86 1011.8
20260904054524 66 196 0.0 0.0 0.00 0.00 0.00 86 1011.7
20260904054027 66 196 0.0 0.0 0.00 0.00 0.00 86 1011.8
20260904053528 66 196 0.0 0.0 0.00 0.00 0.00 86 1011.8
20260904053035 66 196 0.0 0.0 0.00 0.00 0.00 85 1011.8
20260904052518 66 196 0.0 0.0 0.00 0.00 0.00 86 1011.8
20260904052018 66 195 0.0 0.0 0.00 0.00 0.00 85 1011.8
20260904051527 66 195 0.0 0.0 0.00 0.00 0.00 85 1011.9
20260904051026 66 195 0.0 0.0 0.00 0.00 0.00 85 1012.0
20260904050529 66 195 0.0 0.0 0.00 0.00 0.00 84 1012.0
20260904050041 67 195 0.0 0.0 0.00 0.00 0.00 84 1012.0
20260904045525 67 194 0.0 0.0 0.00 0.00 0.00 84 1012.0
20260904045034 67 194 0.0 0.0 0.00 0.00 0.00 84 1012.0
20260904044540 67 194 0.0 0.0 0.00 0.00 0.00 84 1011.9
20260904044022 67 194 0.0 0.0 0.00 0.00 0.00 83 1012.0
20260904043528 67 194 0.0 0.0 0.00 0.00 0.00 83 1011.9
20260904043029 67 194 0.0 1.0 0.00 0.00 0.00 84 1011.9
20260904042529 67 194 0.0 1.0 0.00 0.00 0.00 84 1011.9
20260904042034 68 194 0.0 1.0 0.00 0.00 0.00 84 1012.0
20260904041537 68 194 0.0 1.0 0.00 0.00 0.00 83 1012.0
20260904041046 68 194 0.0 1.0 0.00 0.00 0.00 83 1011.9
20260904040525 68 195 0.0 2.0 0.00 0.00 0.00 83 1011.9
20260904040030 68 195 0.0 2.0 0.00 0.00 0.00 83 1011.8
20260904035528 68 195 0.0 0.0 0.00 0.00 0.00 83 1011.8
20260904035037 68 195 0.0 0.0 0.00 0.00 0.00 83 1011.8
20260904034541 68 195 0.0 0.0 0.00 0.00 0.00 83 1011.7
20260904034023 68 195 0.0 0.0 0.00 0.00 0.00 82 1011.6
20260904033528 68 196 0.0 3.0 0.00 0.00 0.00 83 1011.5
20260904033032 68 195 0.0 3.0 0.00 0.00 0.00 82 1011.5
20260904032518 68 197 0.0 1.0 0.00 0.00 0.00 82 1011.4
20260904032028 68 197 0.0 1.0 0.00 0.00 0.00 82 1011.4
20260904031530 68 197 0.0 1.0 0.00 0.00 0.00 81 1011.2
20260904031032 69 198 0.0 2.0 0.00 0.00 0.00 81 1011.2
20260904030535 69 198 0.0 2.0 0.00 0.00 0.00 81 1011.3
20260904030036 69 198 0.0 4.0 0.00 0.00 0.00 81 1011.3
20260904025522 69 198 0.0 4.0 0.00 0.00 0.00 81 1011.2
20260904025050 69 197 1.0 3.0 0.00 0.00 0.00 81 1011.3
20260904024533 69 204 0.0 2.0 0.00 0.00 0.00 80 1011.2
20260904024039 69 205 0.0 2.0 0.00 0.00 0.00 80 1011.2
20260904023523 69 205 1.0 2.0 0.00 0.00 0.00 79 1011.2
20260904023029 69 205 0.0 2.0 0.00 0.00 0.00 79 1011.2
20260904022530 70 206 0.0 3.0 0.00 0.00 0.00 78 1011.2
20260904022033 70 207 0.0 4.0 0.00 0.00 0.00 77 1011.2
20260904021539 70 206 1.0 4.0 0.00 0.00 0.00 77 1011.2
20260904021022 70 227 1.0 4.0 0.00 0.00 0.00 78 1011.3
20260904020525 71 233 1.0 4.0 0.00 0.00 0.00 77 1011.2
20260904020028 71 267 1.0 4.0 0.00 0.00 0.00 76 1011.2
20260904015529 71 207 1.0 4.0 0.00 0.00 0.00 76 1011.2
20260904015035 71 203 0.0 5.0 0.00 0.00 0.00 76 1011.2
20260904014520 71 207 2.0 5.0 0.00 0.00 0.00 76 1011.2
20260904014023 72 273 1.0 7.0 0.00 0.00 0.00 76 1011.3
20260904013524 72 228 3.0 7.0 0.00 0.00 0.00 75 1011.3
20260904013029 72 240 3.0 7.0 0.00 0.00 0.00 75 1011.2
20260904012526 73 213 2.0 7.0 0.00 0.00 0.00 75 1011.3
20260904012031 73 197 3.0 6.0 0.00 0.00 0.00 75 1011.4
20260904011559 73 302 3.0 7.0 0.00 0.00 0.00 74 1011.5
20260904011021 73 261 2.0 7.0 0.00 0.00 0.00 73 1011.6
20260904010524 74 198 2.0 8.0 0.00 0.00 0.00 72 1011.5
20260904010028 74 209 4.0 8.0 0.00 0.00 0.00 72 1011.4
20260904005532 75 272 4.0 7.0 0.00 0.00 0.00 70 1011.4
20260904005043 75 224 3.0 7.0 0.00 0.00 0.00 70 1011.3
20260904004524 75 225 2.0 7.0 0.00 0.00 0.00 71 1011.3
20260904004029 75 238 4.0 9.0 0.00 0.00 0.00 70 1011.4
20260904003532 75 220 4.0 9.0 0.00 0.00 0.00 69 1011.3
20260904003038 76 237 4.0 9.0 0.00 0.00 0.00 69 1011.4
20260904002526 76 229 3.0 8.0 0.00 0.00 0.00 69 1011.4
20260904002030 76 215 4.0 8.0 0.00 0.00 0.00 69 1011.4
20260904001541 76 196 4.0 11.0 0.00 0.00 0.00 69 1011.5
20260904001023 76 221 4.0 13.0 0.00 0.00 0.00 70 1011.6
20260904000528 77 236 6.0 13.0 0.00 0.00 0.00 69 1011.6
20260904000033 77 207 4.0 10.0 0.00 0.00 0.00 68 1011.6
20260903235557 77 207 4.0 9.0 0.00 0.00 0.00 67 1011.5
20260903235044 78 270 4.0 10.0 0.00 0.00 0.00 67 1011.6
20260903234528 78 227 4.0 10.0 0.00 0.00 0.00 66 1011.6
20260903234030 78 240 4.0 11.0 0.00 0.00 0.00 65 1011.6
20260903233535 78 210 4.0 11.0 0.00 0.00 0.00 67 1011.6
20260903233021 78 231 5.0 11.0 0.00 0.00 0.00 65 1011.7
20260903232518 78 223 4.0 9.0 0.00 0.00 0.00 66 1011.7
20260903232020 78 240 5.0 9.0 0.00 0.00 0.00 66 1011.7
20260903231520 78 252 4.0 10.0 0.00 0.00 0.00 67 1011.8
20260903231025 78 210 5.0 10.0 0.00 0.00 0.00 69 1011.8
20260903230528 78 230 5.0 11.0 0.00 0.00 0.00 69 1011.8
20260903230031 78 238 5.0 11.0 0.00 0.00 0.00 68 1011.8
20260903225536 79 196 3.0 10.0 0.00 0.00 0.00 69 1011.8
20260903225043 79 238 5.0 10.0 0.00 0.00 0.00 67 1011.9
20260903224524 80 231 4.0 9.0 0.00 0.00 0.00 67 1012.0
20260903224028 80 232 2.0 9.0 0.00 0.00 0.00 68 1012.0
20260903223533 80 219 4.0 9.0 0.00 0.00 0.00 67 1012.0
20260903223042 80 219 5.0 9.0 0.00 0.00 0.00 68 1012.1
20260903222526 80 207 5.0 10.0 0.00 0.00 0.00 67 1012.1
20260903222027 81 213 4.0 8.0 0.00 0.00 0.00 67 1012.0
20260903221528 80 232 2.0 9.0 0.00 0.00 0.00 68 1012.0
20260903221030 80 208 5.0 9.0 0.00 0.00 0.00 68 1012.0
20260903220529 80 269 4.0 9.0 0.00 0.00 0.00 68 1012.1
20260903220033 80 203 5.0 10.0 0.00 0.00 0.00 68 1012.1
20260903215537 81 238 4.0 10.0 0.00 0.00 0.00 68 1012.1
20260903215024 81 213 5.0 10.0 0.00 0.00 0.00 67 1012.1
20260903214523 81 196 3.0 9.0 0.00 0.00 0.00 67 1012.2
20260903214029 81 226 4.0 9.0 0.00 0.00 0.00 66 1012.2
20260903213529 81 196 4.0 9.0 0.00 0.00 0.00 67 1012.2
20260903213037 81 217 4.0 9.0 0.00 0.00 0.00 66 1012.3
20260903212522 81 202 4.0 9.0 0.00 0.00 0.00 66 1012.3
20260903212024 81 221 4.0 7.0 0.00 0.00 0.00 66 1012.3
20260903211533 81 207 4.0 9.0 0.00 0.00 0.00 65 1012.3
20260903211039 81 261 4.0 9.0 0.00 0.00 0.00 65 1012.3
20260903210521 81 225 3.0 8.0 0.00 0.00 0.00 66 1012.3
20260903210026 81 238 2.0 8.0 0.00 0.00 0.00 65 1012.3
20260903205533 81 216 2.0 11.0 0.00 0.00 0.00 65 1012.3
20260903205020 81 207 4.0 11.0 0.00 0.00 0.00 65 1012.3
20260903204545 82 220 4.0 7.0 0.00 0.00 0.00 64 1012.4
20260903204026 82 265 2.0 7.0 0.00 0.00 0.00 65 1012.4
20260903203528 82 222 2.0 7.0 0.00 0.00 0.00 65 1012.4
20260903203035 82 270 1.0 7.0 0.00 0.00 0.00 65 1012.5
20260903202522 81 215 1.0 7.0 0.00 0.00 0.00 64 1012.5
20260903202027 81 274 3.0 7.0 0.00 0.00 0.00 64 1012.6
20260903201536 81 190 3.0 7.0 0.00 0.00 0.00 65 1012.6
20260903201018 81 202 3.0 7.0 0.00 0.00 0.00 65 1012.7
20260903200521 81 210 2.0 9.0 0.00 0.00 0.00 67 1012.6
20260903200022 80 245 3.0 9.0 0.00 0.00 0.00 68 1012.7
20260903195525 80 213 3.0 7.0 0.00 0.00 0.00 68 1012.7
20260903195049 80 216 2.0 9.0 0.00 0.00 0.00 68 1012.8
20260903194557 80 224 2.0 9.0 0.00 0.00 0.00 68 1012.8
20260903194019 80 209 2.0 9.0 0.00 0.00 0.00 68 1012.9
20260903193527 80 213 4.0 9.0 0.00 0.00 0.00 67 1012.9
20260903193030 79 199 3.0 9.0 0.00 0.00 0.00 68 1013.0
20260903192533 80 228 4.0 8.0 0.00 0.00 0.00 67 1013.0
20260903192043 80 215 2.0 8.0 0.00 0.00 0.00 68 1013.1
20260903191525 79 200 3.0 8.0 0.00 0.00 0.00 68 1013.1
20260903191031 80 220 5.0 8.0 0.00 0.00 0.00 67 1013.2
20260903190536 80 178 2.0 8.0 0.00 0.00 0.00 68 1013.3
20260903190022 80 213 3.0 8.0 0.00 0.00 0.00 67 1013.3
20260903185528 80 205 2.0 8.0 0.00 0.00 0.00 67 1013.4
20260903185032 80 210 3.0 7.0 0.00 0.00 0.00 66 1013.6
20260903184532 80 211 1.0 7.0 0.00 0.00 0.00 66 1013.7
20260903184032 79 223 2.0 8.0 0.00 0.00 0.00 67 1013.7
20260903183523 79 206 3.0 8.0 0.00 0.00 0.00 67 1013.9
20260903183025 78 191 2.0 7.0 0.00 0.00 0.00 68 1013.9
20260903182524 78 183 2.0 7.0 0.00 0.00 0.00 68 1013.9
20260903182026 78 202 4.0 8.0 0.00 0.00 0.00 68 1013.9
20260903181534 78 209 3.0 8.0 0.00 0.00 0.00 69 1014.0
20260903181030 78 210 3.0 8.0 0.00 0.00 0.00 68 1013.9
20260903180539 78 211 1.0 6.0 0.00 0.00 0.00 68 1014.0
20260903180035 77 198 1.0 7.0 0.00 0.00 0.00 70 1013.9
20260903175538 77 207 3.0 7.0 0.00 0.00 0.00 69 1014.0
20260903175022 77 195 3.0 7.0 0.00 0.00 0.00 70 1014.0
20260903174527 77 211 1.0 6.0 0.00 0.00 0.00 70 1014.0
20260903174032 77 220 2.0 7.0 0.00 0.00 0.00 70 1014.0
20260903173540 77 230 3.0 7.0 0.00 0.00 0.00 69 1013.9
20260903173025 77 198 0.0 0.0 0.00 0.00 0.00 69 1013.9
20260903172526 77 213 0.0 0.0 0.00 0.00 0.00 69 1013.9
20260903172025 77 238 0.0 0.0 0.00 0.00 0.00 69 1013.9
20260903171525 77 214 0.0 0.0 0.00 0.00 0.00 70 1013.8
20260903171046 77 167 0.0 0.0 0.00 0.00 0.00 71 1013.8
20260903170527 77 226 0.0 0.0 0.00 0.00 0.00 70 1013.9
20260903170034 77 181 0.0 0.0 0.00 0.00 0.00 70 1013.9
20260903165519 77 205 0.0 0.0 0.00 0.00 0.00 70 1013.9
20260903165023 77 211 0.0 0.0 0.00 0.00 0.00 70 1013.9
20260903164525 77 211 0.0 0.0 0.00 0.00 0.00 69 1013.9
20260903164030 77 252 0.0 0.0 0.00 0.00 0.00 70 1013.9
20260903163558 76 255 0.0 0.0 0.00 0.00 0.00 70 1013.9
20260903163018 76 108 0.0 0.0 0.00 0.00 0.00 70 1013.9
20260903162522 75 108 0.0 0.0 0.00 0.00 0.00 71 1013.9
20260903162051 74 108 0.0 0.0 0.00 0.00 0.00 73 1013.8
20260903161520 74 22 0.0 0.0 0.00 0.00 0.00 72 1013.9
20260903161023 74 36 0.0 0.0 0.00 0.00 0.00 73 1013.9
20260903160527 73 51 0.0 0.0 0.00 0.00 0.00 73 1014.0
20260903160032 73 51 0.0 0.0 0.00 0.00 0.00 73 1014.1
20260903155555 72 51 0.0 0.0 0.00 0.00 0.00 73 1014.0
20260903155037 71 51 0.0 0.0 0.00 0.00 0.00 75 1014.0
20260903154526 70 49 0.0 0.0 0.00 0.00 0.00 76 1014.1
20260903154034 69 50 0.0 0.0 0.00 0.00 0.00 77 1014.1
20260903153540 68 56 0.0 0.0 0.00 0.00 0.00 78 1014.2
20260903153023 67 49 0.0 0.0 0.00 0.00 0.00 79 1014.1
20260903152525 67 50 0.0 0.0 0.00 0.00 0.00 81 1014.1
20260903152027 66 32 0.0 0.0 0.00 0.00 0.00 82 1014.3
20260903151526 65 51 0.0 0.0 0.00 0.00 0.00 81 1014.2
20260903151028 65 40 0.0 0.0 0.00 0.00 0.00 82 1014.2
20260903150534 65 47 0.0 0.0 0.00 0.00 0.00 82 1014.2
20260903150019 65 42 0.0 0.0 0.00 0.00 0.00 83 1014.2
20260903145549 64 45 0.0 0.0 0.00 0.00 0.00 84 1014.2
20260903145033 63 52 0.0 0.0 0.00 0.00 0.00 85 1014.2
20260903144521 63 59 0.0 0.0 0.00 0.00 0.00 85 1014.2
20260903144020 63 54 0.0 0.0 0.00 0.00 0.00 86 1014.1
20260903143542 62 55 0.0 0.0 0.00 0.00 0.00 87 1014.0
20260903143024 62 41 0.0 4.0 0.00 0.00 0.00 87 1013.9
20260903142548 62 70 0.0 8.0 0.00 0.00 0.00 87 1013.9
20260903142030 62 63 3.0 8.0 0.00 0.00 0.00 87 1013.8
20260903141534 61 72 3.0 7.0 0.00 0.00 0.00 88 1013.8
20260903141021 61 63 3.0 10.0 0.00 0.00 0.00 88 1013.8
20260903140521 61 38 5.0 10.0 0.00 0.00 0.00 88 1013.7
20260903140026 61 53 4.0 7.0 0.00 0.00 0.00 89 1013.6
20260903135526 61 49 4.0 7.0 0.00 0.00 0.00 89 1013.5
20260903135035 61 53 3.0 6.0 0.00 0.00 0.00 89 1013.6
20260903134519 61 55 4.0 6.0 0.00 0.00 0.00 89 1013.5
20260903134018 61 47 3.0 8.0 0.00 0.00 0.00 89 1013.4
20260903133542 60 61 4.0 8.0 0.00 0.00 0.00 89 1013.4
20260903133028 60 45 4.0 8.0 0.00 0.00 0.00 89 1013.2
20260903132532 60 61 3.0 8.0 0.00 0.00 0.00 89 1013.2
20260903132056 60 53 3.0 7.0 0.00 0.00 0.00 89 1013.2
20260903131537 60 53 3.0 8.0 0.00 0.00 0.00 89 1013.3
20260903131042 60 40 3.0 5.0 0.00 0.00 0.00 89 1013.3
20260903130526 60 60 2.0 6.0 0.00 0.00 0.00 89 1013.3
20260903130050 60 36 3.0 6.0 0.00 0.00 0.00 89 1013.3
20260903125528 60 56 3.0 6.0 0.00 0.00 0.00 88 1013.3
20260903125034 60 56 2.0 7.0 0.00 0.00 0.00 88 1013.2
20260903124518 61 55 4.0 7.0 0.00 0.00 0.00 88 1013.3
20260903124025 61 67 3.0 7.0 0.00 0.00 0.00 88 1013.2
20260903123527 61 65 4.0 7.0 0.00 0.00 0.00 88 1013.1
20260903123031 61 52 4.0 7.0 0.00 0.00 0.00 88 1013.2
20260903122519 61 54 3.0 6.0 0.00 0.00 0.00 88 1013.2
20260903122043 61 46 3.0 5.0 0.00 0.00 0.00 89 1013.2
20260903121523 61 48 3.0 5.0 0.00 0.00 0.00 88 1013.1
20260903121022 61 48 2.0 7.0 0.00 0.00 0.00 88 1013.1
20260903120525 61 51 4.0 8.0 0.00 0.00 0.00 89 1013.2
20260903120029 61 28 5.0 8.0 0.00 0.00 0.00 88 1013.2
20260903115529 61 43 5.0 9.0 0.00 0.00 0.00 88 1013.1
20260903115032 61 48 4.0 7.0 0.00 0.00 0.00 88 1013.2
20260903114537 61 68 5.0 7.0 0.00 0.00 0.00 88 1013.2
20260903114045 61 68 3.0 6.0 0.00 0.00 0.00 88 1013.2
20260903113528 61 62 4.0 7.0 0.00 0.00 0.00 88 1013.2
20260903113028 61 59 3.0 6.0 0.00 0.00 0.00 88 1013.2
20260903112530 61 39 3.0 6.0 0.00 0.00 0.00 88 1013.2
20260903112054 61 76 2.0 5.0 0.00 0.00 0.00 88 1013.2
20260903111534 61 60 2.0 5.0 0.00 0.00 0.00 88 1013.2
20260903111035 61 57 2.0 7.0 0.00 0.00 0.00 88 1013.3
20260903110518 61 57 1.0 7.0 0.00 0.00 0.00 88 1013.3
20260903110034 62 60 4.0 7.0 0.00 0.00 0.00 88 1013.3
20260903105520 62 59 0.0 4.0 0.00 0.00 0.00 88 1013.3
20260903105023 62 59 1.0 4.0 0.00 0.00 0.00 87 1013.4
20260903104526 62 61 2.0 5.0 0.00 0.00 0.00 88 1013.4
20260903104034 62 64 1.0 5.0 0.00 0.00 0.00 87 1013.4
20260903103538 62 61 2.0 5.0 0.00 0.00 0.00 87 1013.4
20260903103022 63 60 1.0 4.0 0.00 0.00 0.00 87 1013.5
20260903102524 63 65 0.0 5.0 0.00 0.00 0.00 87 1013.5
20260903102034 63 67 1.0 5.0 0.00 0.00 0.00 87 1013.5
20260903101518 63 53 0.0 0.0 0.00 0.00 0.00 87 1013.6
20260903101029 63 52 0.0 0.0 0.00 0.00 0.00 86 1013.7
20260903100529 63 52 0.0 0.0 0.00 0.00 0.00 86 1013.7
20260903100027 63 52 0.0 3.0 0.00 0.00 0.00 86 1013.7
20260903095529 63 53 1.0 3.0 0.00 0.00 0.00 86 1013.8
20260903095029 63 51 0.0 3.0 0.00 0.00 0.00 86 1013.8
20260903094532 63 55 1.0 4.0 0.00 0.00 0.00 86 1013.8
20260903094038 63 55 0.0 4.0 0.00 0.00 0.00 86 1013.9
20260903093523 63 53 0.0 4.0 0.00 0.00 0.00 86 1013.9
20260903093025 63 56 1.0 5.0 0.00 0.00 0.00 86 1013.9
20260903092526 63 61 2.0 5.0 0.00 0.00 0.00 86 1013.9
20260903092034 63 54 0.0 3.0 0.00 0.00 0.00 86 1013.9
20260903091522 63 54 0.0 4.0 0.00 0.00 0.00 86 1014.0
20260903091044 63 53 1.0 4.0 0.00 0.00 0.00 86 1014.0
20260903090523 63 53 1.0 4.0 0.00 0.00 0.00 86 1013.9
20260903090023 63 52 0.0 4.0 0.00 0.00 0.00 87 1014.1
20260903085526 63 51 1.0 4.0 0.00 0.00 0.00 87 1014.1
20260903085033 63 51 1.0 5.0 0.00 0.00 0.00 87 1014.1
20260903084538 63 50 2.0 5.0 0.00 0.00 0.00 87 1014.1
20260903084021 63 54 2.0 4.0 0.00 0.00 0.00 87 1014.1